Regional Weather Roundup
Issued by NWS

Home | Current Version | Previous Version | Text Only | Print | Product List | Glossary Off
Versions: 1 2 3 4 5 6 7 8 9 10 11 12 13 14 15 16 17 18 19 20 21 22 23 24 25 26 27 28 29

000
ASUS45 KGTF 040610
RWRMT
MONTANA HOURLY WEATHER ROUNDUP
NATIONAL WEATHER SERVICE GREAT FALLS MT
1200 AM MDT MON MAY 04 2015

NOTE: "FAIR" INDICATES FEW OR NO CLOUDS BELOW 12000 FEET WITH NO
SIGNIFICANT WEATHER AND/OR OBSTRUCTIONS TO VISIBILITY.

MTZ001>007-043-040700-
WEST OF THE DIVIDE

CITY           SKY/WX    TMP DP  RH WIND       PRES   REMARKS
KALISPELL      CLEAR     37  28  70 NW5       29.91F
MISSOULA       CLEAR     46  22  38 CALM      29.92S
BUTTE          CLEAR     46  25  43 CALM      29.98S
DEER LODGE       N/A     45  25  45 CALM      29.99R
EUREKA           N/A     37  27  65 CALM      29.94S
HAMILTON         N/A     43  27  52 SE3       29.92S
LIBBY            N/A     43  28  56 CALM      29.93S
$$

MTZ008-052>055-040700-
SOUTHWEST MONTANA

CITY           SKY/WX    TMP DP  RH WIND       PRES   REMARKS
BOZEMAN        PTCLDY    51  31  46 N5        29.96R
DILLON         CLEAR     49  28  44 CALM      29.95R
$$

MTZ009-010-012-014-046-048-049-054-040700-
EAST SLOPES AND CENTRAL MONTANA

CITY           SKY/WX    TMP DP  RH WIND       PRES   REMARKS
CUT BANK       CLEAR     45  25  45 E10       29.98S
GREAT FALLS    CLEAR     47  32  56 E10       29.95F
MALMSTROM AFB  CLEAR     49  33  54 S2        29.96S
HELENA         CLEAR     52  26  36 W9        29.94R
$$

MTZ011-013-016-021-045-047-050-051-040700-
NORTH CENTRAL MONTANA

CITY           SKY/WX    TMP DP  RH WIND       PRES   REMARKS
HAVRE          CLEAR     50  29  44 E14       30.01S
LEWISTOWN      CLEAR     47  31  53 E10       30.01S
CHINOOK          N/A     45  28  53 E7        30.04R
FORT BENTON      N/A     54  28  37 E12G21    29.97S
$$

MTZ017>020-022>042-056>058-061-062-040700-
EASTERN PLAINS

CITY           SKY/WX    TMP DP  RH WIND       PRES   REMARKS
BAKER          PTCLDY    38  30  73 SE8       30.11S
BILLINGS       CLOUDY    51  35  54 E9        30.01S
GLASGOW        CLEAR     43  25  49 E10       30.07R
JORDAN           N/A     42  27  55 E5        30.06S
LIVINGSTON     PTCLDY    48  35  60 SE9       30.00R
MILES CITY     MOCLDY    52  28  39 E6        30.06S
SIDNEY         CLEAR     39  23  52 CALM      30.13R
WOLF POINT     CLEAR     38  25  59 E3        30.11R
BIG TIMBER       N/A     48  34  57 N5        30.03F
FORSYTH          N/A     48  30  49 E6        30.04F
PLENTYWOOD       N/A     43  19  39 NE5       30.11S
POPLAR           N/A     45  25  45 E6        30.11R
$$

REGIONAL REPORTS...DAKOTAS

CITY           SKY/WX    TMP DP  RH WIND       PRES   REMARKS
WILLISTON      CLEAR     41  22  46 SE3       30.12R
MINOT          CLEAR     41  26  55 SW7       30.10R
DICKINSON      PTCLDY    40  26  57 E6        30.10R
BEACH          FAIR      37  32  81 CALM      30.12R
CROSBY         FAIR      34  32  93 S6        30.13R WCI  29
WATFORD CITY   FAIR      37  27  65 CALM      30.11R
BISMARCK       CLEAR     44  25  47 CALM      30.12R
GRAND FORKS    CLEAR     40  29  64 NW6       30.05R
FARGO          CLEAR     45  25  45 N9        30.05R
BUFFALO SD       N/A     47  34  60 NE9       30.04S
RAPID CITY     MOCLDY    47  34  60 E3        30.10R
$$

REGIONAL REPORTS...WYOMING/IDAHO/WASHINGTON

CITY           SKY/WX    TMP DP  RH WIND       PRES   REMARKS
GILLETTE       RAIN      48  44  86 S12       30.08R
SHERIDAN       MOCLDY    49  42  77 SE8       30.01F
BUFFALO WY     CLOUDY    50  46  86 S14       30.08S
CODY           CLOUDY    50  41  71 SE7       30.02R
YELLOWSTONE LA   N/A     30  29  96 CALM      30.12S
IDAHO FALLS    PTCLDY    48  42  80 N6        29.95S
SALMON         PTCLDY    46  30  53 CALM      29.90R
BOISE          CLEAR     57  30  35 SE5       29.82S
SPOKANE        CLEAR     51  27  39 W5        29.88F
$$

REGIONAL REPORTS...ALBERTA

CITY           SKY/WX    TMP DP  RH WIND       PRES   REMARKS
EDMONTON       PTCLDY    36  32  87 E6        30.02S WCI  31
CALGARY        PTCLDY    41  25  52 S8        29.99R
LETHBRIDGE     CLEAR     36  27  69 SE8       29.99S WCI  29
MEDICINE HAT   CLEAR     41  28  60 E6        30.03F
$$

REGIONAL REPORTS...SASKATCHEWAN

CITY           SKY/WX    TMP DP  RH WIND       PRES   REMARKS
SWIFT CURRENT  MOCLDY    36  28  75 SE8       30.09S WCI  29
REGINA         PTCLDY    37  34  87 S3        30.11R
SASKATOON      CLEAR     36  28  75 W5        30.10R
$$



USA.gov is the U.S. government's official web portal to all federal, state and local government web resources and services.